Vahid Cheshmi

Olheiro-Chefe - Esteghlal
3 Abr 2027
Sábado
Processo

Personalidade

Adaptabilidade (16) Ambição (2) Controvérsia (7) Lealdade (1) Pressão (3) Profissionalismo (13) Espírito Esportivo (4) Temperamento (2)

Perfil

Estilo de Treinamento Democrático
Licença Continental A
Determinação 6
Gestão de Pessoas 13
Motivação 5
Disciplina 12
Satisfação no Trabalho
72%
Fadiga
0%
Função Olheiro-Chefe
Salário 20.9K p/s
Contrato 14.03.2028

Desempenho

Comportamento Bom
Eficácia do Treinamento
32%
Desenvolvimento do Jogador
20%
Prevenção de Lesões
35%
Implementação Tática
30%

Eventos Recentes

Avaliou um jogador agora
Participou de uma reunião de recrutamento agora
Recomendou um alvo de transferência agora
Participou de uma reunião de recrutamento agora
Avaliou um jogador agora
Avaliou um jogador agora
Avaliou um jogador agora
Avaliou um jogador 7d atrás

Monitorando agora

234
Jogador Clube Status Habilidade Confiança Observado Última observação Último voto
Eldar Ćivić Baltika Ativo 114 / 107 40% 9 02.04.2027 -
Ali Soliman Masr El Makasa Ativo 136 / 118 40% 4 02.04.2027 -
Stefano Moreo Pisa Ativo 122 / 121 40% 2 02.04.2027 -
Federico Di Francesco Catanzaro Ativo 114 / 103 40% 2 02.04.2027 -
Mohamed Sherif Al Ahly Ativo 105 / 99 40% 1 02.04.2027 -
Mykola Haiduchyk Polissia Ativo 119 / 122 40% 6 01.04.2027 -
Andrea Belotti Cagliari Ativo 135 / 113 40% 4 01.04.2027 -
Matvii Ponomarenko Dynamo Kyiv Ativo 114 / 116 40% 1 01.04.2027 -
Giorgos Giakoumakis Al Ain Ativo 133 / 131 40% 5 30.03.2027 -
Sory Kaba Al Dhafra Ativo 120 / 126 40% 3 30.03.2027 -
Valentín Vada Damac Ativo 122 / 122 40% 3 30.03.2027 -
Cauley Woodrow Luton Town Ativo 103 / 106 40% 1 30.03.2027 -
Mohamed Hany Al Ahly Ativo 134 / 140 40% 1 30.03.2027 -
Carlos Rotondi Cruz Azul Ativo 124 / 125 40% 1 30.03.2027 -
Luis Chávez Dinamo Moscow Ativo 140 / 146 40% 4 29.03.2027 -
Juan Bezerra Zamalek Ativo 120 / 109 40% 7 29.03.2027 -
John Okoye Ebuka Ittihad Ativo 121 / 100 40% 8 29.03.2027 -
Nabil Fekir Al Jazira Ativo 139 / 134 40% 9 28.03.2027 -
Caio Lucas Al Ain Ativo 128 / 121 40% 9 28.03.2027 -
Fabio Abiuso Carrarese Ativo 123 / 116 40% 1 28.03.2027 -
Zizo Al Ahly Ativo 145 / 115 40% 2 26.03.2027 -
Vyacheslav Grulev Nizhniy Novgorod Ativo 110 / 103 40% 1 26.03.2027 -
Nicolas Haas Empoli Ativo 128 / 104 40% 1 25.03.2027 -
Danil Krugovoy CSKA Moscow Ativo 134 / 125 40% 1 25.03.2027 -
Anatole Abang USM Alger Ativo 105 / 121 40% 4 22.03.2027 -
Cedric Gondo Reggiana Ativo 124 / 104 40% 1 22.03.2027 -
Aaron Collins Milton Keynes Dons Ativo 126 / 104 40% 1 22.03.2027 -
Carlos Paraco Metalist Ativo 104 / 110 40% 2 21.03.2027 -
Ibrahim Tarek Masr El Makasa Ativo 127 / 138 40% 4 21.03.2027 -
Chris Ramos Botafogo Ativo 128 / 136 40% 3 21.03.2027 -
Chico Banza Zamalek Ativo 111 / 132 40% 1 21.03.2027 -
Ibrahim Cissoko Zwolle Ativo 121 / 119 40% 5 20.03.2027 -
Jack Currie Oxford United Ativo 116 / 137 40% 3 20.03.2027 -
Frédéric Maciel CSKA 1948 Ativo 112 / 97 40% 2 18.03.2027 -
Lassina Traoré Shakhtar Ativo 128 / 120 40% 2 18.03.2027 -
Jan Hurtado Volos NPS Ativo 112 / 103 40% 1 18.03.2027 -
Ramadan Mohsen Zamalek Ativo 135 / 131 40% 3 17.03.2027 -
Tommaso Biasci Avellino Ativo 131 / 99 40% 4 17.03.2027 -
François Kamano Sochi Ativo 106 / 127 40% 3 17.03.2027 -
Lewis Baker Stoke City Ativo 121 / 138 40% 2 17.03.2027 -
Iván Calero Karpaty Ativo 115 / 128 40% 1 17.03.2027 -
Achraf Bencharki Al Ahly Ativo 120 / 131 40% 4 15.03.2027 -
Marco Tumminello Benevento Ativo 110 / 124 40% 1 15.03.2027 -
Gianluca Caprari Padova Ativo 120 / 122 40% 2 14.03.2027 -
Zakaria Naïdji MC Alger Ativo 102 / 99 40% 5 13.03.2027 -
Omar Khribin Al Wahda Ativo 132 / 140 40% 2 11.03.2027 -
Peter Itodo Metalist Ativo 106 / 103 40% 1 10.03.2027 -
Yurii Klymchuk Kolos Ativo 103 / 122 40% 2 07.03.2027 -
Mohau Nkota Al-Ettifaq Ativo 117 / 114 40% 4 04.03.2027 -
Giuseppe Panico Foggia Ativo 121 / 125 40% 3 02.03.2027 -
Firas Ben Larbi Sharjah Ativo 122 / 114 40% 2 28.02.2027 -
Ioannis Pittas CSKA Sofia Ativo 116 / 109 40% 2 27.02.2027 -
Pêpê Pafos Ativo 120 / 113 40% 2 27.02.2027 -
Đorđe Ivanović AE Kition Ativo 118 / 122 40% 2 27.02.2027 -
Tedi Cara LNZ Ativo 126 / 99 40% 1 27.02.2027 -
Peter Shalulile Mamelodi Sundowns Ativo 136 / 135 40% 11 25.02.2027 -
Leandro Godoy CSKA Sofia Ativo 129 / 127 40% 1 25.02.2027 -
Karim El Berkaoui Al Dhafra Ativo 127 / 124 40% 4 23.02.2027 -
Mykola Mykhailenko Dynamo Kyiv Ativo 119 / 113 40% 2 23.02.2027 -
Amine Bassi CR Belouizdad Ativo 123 / 127 40% 1 23.02.2027 -
Andrea Ciofi Cesena Ativo 122 / 138 40% 3 22.02.2027 -
Akinkunmi Amoo Ismaily Ativo 124 / 112 40% 2 21.02.2027 -
Silvère Ganvoula Al-Fayha Ativo 112 / 126 40% 2 19.02.2027 -
Mohamed Konaté Akhmat Grozny Ativo 105 / 109 40% 4 19.02.2027 -
Sergio Lozano Jagiellonia Ativo 117 / 123 40% 3 18.02.2027 -
Pavel Meleshin Sochi Ativo 109 / 127 40% 2 18.02.2027 -
Róbert Polievka MTK Budapest Ativo 111 / 100 40% 2 15.02.2027 -
Sérgio Conceição AEL Ativo 128 / 114 40% 3 13.02.2027 -
Alfa Semedo Al-Fayha Ativo 124 / 125 40% 2 12.02.2027 -
Lucas Soares Santa Clara Ativo 108 / 120 40% 1 12.02.2027 -
Ihor Krasnopir Polissia Ativo 127 / 117 40% 4 10.02.2027 -
Josh Windass Wrexham Ativo 137 / 126 40% 1 09.02.2027 -
Moustafa Zeidan El Masry Ativo 131 / 128 40% 1 08.02.2027 -
Marwan Ateya Al Ahly Ativo 131 / 127 40% 1 04.02.2027 -
Callum O'Dowda Ferencvaros Ativo 117 / 108 40% 1 04.02.2027 -
Odiljon Hamrobekov Tractor Ativo 120 / 128 40% 2 03.02.2027 -
Oleksandr Drambaiev LNZ Ativo 123 / 111 40% 2 03.02.2027 -
Charlie Webster Burton Albion Ativo 123 / 128 40% 2 03.02.2027 -
Mohamed Ali Ben Romdhane Al Ahly Ativo 116 / 113 40% 1 03.02.2027 -
Jobson Al Dhafra Ativo 126 / 124 40% 1 31.01.2027 -
Miroslav Bogosavac Akhmat Grozny Ativo 117 / 109 40% 1 29.01.2027 -
Ante Roguljić Diosgyor Ativo 111 / 128 40% 4 27.01.2027 -
Peter Olayinka Al-Wehda Ativo 119 / 131 40% 1 26.01.2027 -
Ali Saleh Al Wasl Ativo 117 / 122 40% 1 24.01.2027 -
Renzo Tesuri Atlético Tucumán Ativo 128 / 127 40% 1 23.01.2027 -
Nicolás Arévalo Metalist Ativo 113 / 101 40% 1 22.01.2027 -
Waldo AE Kition Ativo 116 / 110 40% 1 20.01.2027 -
Lindon Emërllahu Polissia Ativo 109 / 128 40% 1 20.01.2027 -
Frédéric Maciel CSKA 1948 Perdido 104 / 109 40% 2 19.01.2027 -
Franck Boli Wadi Degla Ativo 104 / 97 40% 1 19.01.2027 -
Lucas Passerini Belgrano Ativo 117 / 119 40% 1 18.01.2027 -
Irakli Yegoian Excelsior Ativo 101 / 106 40% 1 17.01.2027 -
Luka Vešner Tičić Nizhniy Novgorod Ativo 116 / 133 40% 1 16.01.2027 -
Robert Mejía Orenburg Ativo 115 / 134 40% 2 14.01.2027 -
Ruslan Bezrukov Rubin Ativo 101 / 121 40% 2 14.01.2027 -
Yehor Tverdokhlib LNZ Ativo 112 / 97 40% 1 13.01.2027 -
Luca Connell Barnsley Ativo 117 / 120 40% 1 12.01.2027 -
Renato Tapia Al Wasl Ativo 141 / 135 40% 2 10.01.2027 -
Oleksandr Andriievskyi Polissia Perdido 111 / 131 40% 1 10.01.2027 -
Willyan Rocha Al Jazira Ativo 135 / 132 40% 1 10.01.2027 -
Wilder Cartagena Persepolis Ativo 121 / 114 40% 6 09.01.2027 -
Nicolás Giménez Al Wasl Rejeitado 134 / 135 40% 3 09.01.2027 Rejeitar
Yohann Magnin CSKA 1948 Ativo 109 / 133 40% 1 09.01.2027 -
Aubrey Modiba Mamelodi Sundowns Ativo 127 / 130 40% 8 08.01.2027 -
Mohammad Naderi Tractor Ativo 117 / 128 40% 11 08.01.2027 -
Franck Boli Wadi Degla Perdido 123 / 105 40% 1 08.01.2027 -
José Barreto Fehervar Ativo 124 / 96 40% 1 06.01.2027 -
Joaquín Correa Estudiantes Ativo 127 / 132 40% 1 06.01.2027 -
Lukáš Juliš MSK Zilina Ativo 125 / 93 40% 5 05.01.2027 -
Kostiantyn Vivcharenko Dynamo Kyiv Ativo 125 / 136 40% 3 05.01.2027 -
Alexandr Ektov Nizhniy Novgorod Ativo 112 / 121 40% 1 05.01.2027 -
Matías González Volos NPS Ativo 108 / 107 40% 1 04.01.2027 -
Andreas Gruber DAC Dunajska Streda Ativo 120 / 114 40% 1 02.01.2027 -
Dániel Lukács Puskas Akademia Ativo 100 / 113 40% 3 31.12.2026 -
Krisztofer Horváth Ujpest Ativo 121 / 100 40% 1 31.12.2026 -
Ousmane Camara Sharjah Ativo 121 / 129 40% 1 31.12.2026 -
Keagan Manyama Ajax Cape Town Ativo 105 / 99 40% 3 30.12.2026 -
Vitalii Dakhnovskyi Bukovyna Ativo 105 / 93 40% 1 30.12.2026 -
Kristoffer Zachariassen Ferencvaros Ativo 134 / 114 40% 3 29.12.2026 -
Muharrem Jashari LNZ Ativo 118 / 125 40% 1 29.12.2026 -
Hossein Kanaani Persepolis Ativo 126 / 123 40% 1 29.12.2026 -
Nicolas Moumi Ngamaleu Pafos Ativo 130 / 125 40% 1 27.12.2026 -
Sadegh Moharrami Tractor Ativo 119 / 107 40% 11 26.12.2026 -
Jakub Plšek MTK Budapest Ativo 116 / 117 40% 3 26.12.2026 -
Artem Slesar Zorya Ativo 110 / 117 40% 1 26.12.2026 -
Peter Kováčik Podbrezova Ativo 102 / 117 40% 1 26.12.2026 -
Alfredo Garcia La Equidad Ativo 147 / 148 40% 8 25.12.2026 -
Dominik Kostka MFK Ruzomberok Ativo 115 / 111 40% 1 25.12.2026 -
Denis Rubanov Dinamo Stavropol Ativo 86 / 103 40% 1 24.12.2026 -
Kane Drummond Oldham Athletic Ativo 105 / 91 40% 1 24.12.2026 -
Lebohang Maboe Kaizer Chiefs Ativo 111 / 93 40% 3 23.12.2026 -
Luke Molyneux Doncaster Rovers Ativo 119 / 132 40% 1 23.12.2026 -
Brian Figueroa Morelia Ativo 108 / 126 40% 4 21.12.2026 -
Daniel Kyerewaa Reading Ativo 101 / 131 40% 2 21.12.2026 -
Tigran Barseghyan Slovan Bratislava Ativo 141 / 109 40% 8 19.12.2026 -
Jay Matete Milton Keynes Dons Ativo 125 / 107 40% 2 18.12.2026 -
Zinedine Ferhat MC Alger Ativo 134 / 103 40% 1 18.12.2026 -
Patrizio Stronati Ujpest Ativo 121 / 105 40% 1 18.12.2026 Mais informações
Thomas Partey Al-Shabab Ativo 137 / 133 40% 5 16.12.2026 -
Jordan Roberts Stevenage Ativo 103 / 95 40% 1 16.12.2026 -
Son Ludogorets Ativo 132 / 109 40% 2 15.12.2026 -
Rafael Profini Metalist Ativo 116 / 128 40% 1 15.12.2026 -
Jorge Padilla Cherno More Ativo 92 / 106 40% 1 15.12.2026 -
Amir Shahim Saba Ativo 92 / 89 40% 1 15.12.2026 -
Solly Khunyedi Bloemfontein Celtic Ativo 100 / 108 40% 1 14.12.2026 -
Hojjat Ahmadi Esteghlal Khuzestan Perdido 104 / 100 40% 1 14.12.2026 Mais informações
Omar Mascarell Al-Khaleej Ativo 141 / 147 40% 1 10.12.2026 -
Tibor Halilović Tractor Ativo 115 / 124 40% 7 09.12.2026 -
Jordan Storey Preston Ativo 112 / 129 40% 2 09.12.2026 -
Álvaro Medrán Al-Ettifaq Ativo 125 / 129 40% 1 09.12.2026 -
Bathusi Aubaas Mamelodi Sundowns Ativo 129 / 121 40% 1 08.12.2026 -
Mohanad Ali Dibba Rejeitado 116 / 105 40% 1 07.12.2026 Mais informações
Milán Tóth Vasas Rejeitado 113 / 108 40% 1 07.12.2026 Mais informações
Divine Lunga Mamelodi Sundowns Ativo 107 / 129 40% 2 05.12.2026 -
Leonardo Koutris NK Celje Ativo 127 / 101 40% 1 05.12.2026 -
Chancel Mbemba Al-Diriyah Ativo 141 / 141 40% 1 05.12.2026 -
Valentin Yefimov Ravan Ativo 132 / 108 40% 2 04.12.2026 -
Edarlyn Reyes Arsenal Tula Ativo 116 / 110 40% 1 01.12.2026 -
Fernando Gorriarán Tigres Ativo 134 / 141 40% 7 30.11.2026 -
Miroslav Pekarik FK Senica Ativo 109 / 102 40% 3 29.11.2026 -
Jakob Dunsby Sandefjord Ativo 110 / 123 40% 2 29.11.2026 -
Percy Mkhize Black Aces Ativo 129 / 112 40% 1 28.11.2026 -
Fahd Moufi Baltika Ativo 108 / 117 40% 1 28.11.2026 -
Thapelo Morena Mamelodi Sundowns Ativo 107 / 122 40% 1 25.11.2026 -
Uerdi Mara Qarabag Ativo 110 / 109 40% 1 24.11.2026 -
Ole Selnæs Rosenborg Ativo 132 / 141 40% 1 24.11.2026 -
Franco Cristaldo Talleres Ativo 126 / 116 40% 4 22.11.2026 -
Iuri Medeiros Ujpest Ativo 126 / 135 40% 3 22.11.2026 -
Nduduzo Sibiya Golden Arrows Ativo 101 / 130 40% 3 20.11.2026 -
Vinícius Lira Santos Ativo 117 / 116 40% 1 19.11.2026 -
Emi Rodriguez Leon Ativo 110 / 136 40% 2 17.11.2026 -
Matías Pellegrini Vélez Ativo 125 / 113 40% 4 15.11.2026 -
Marko Janković Qarabag Ativo 119 / 123 40% 1 15.11.2026 -
Leo Goglichidze Rodina Ativo 120 / 93 40% 1 11.11.2026 -
Alejandro Melo Temperley Ativo 116 / 124 40% 2 09.11.2026 -
Issa Djibrilla Zira Ativo 111 / 134 40% 1 08.11.2026 -
Sinoxolo Kwayiba Chippa United Ativo 104 / 95 40% 1 08.11.2026 -
Deano Van Rooyen Ajax Cape Town Ativo 105 / 105 40% 3 04.11.2026 -
Simen Juklerød DAC Dunajska Streda Ativo 101 / 91 40% 2 04.11.2026 -
Tomislav Duvnjak NK Varazdin Ativo 112 / 126 40% 1 04.11.2026 -
Gift Ngcobo SuperSport United Ativo 99 / 96 40% 1 02.11.2026 -
Velemseni Ndwandwe Golden Arrows Ativo 103 / 107 40% 3 31.10.2026 -
Pule Mmodi Kaizer Chiefs Ativo 118 / 110 40% 1 31.10.2026 -
Wilmar González Sandefjord Ativo 117 / 127 40% 2 29.10.2026 -
Ricardo Alves Sepahan Ativo 122 / 139 40% 3 28.10.2026 -
Samuel Gidi FC Cincinnati Ativo 127 / 121 40% 3 23.10.2026 -
Daler Kuzyaev Krylya Sovetov Ativo 119 / 151 40% 1 23.10.2026 -
Aljoša Matko Ujpest Ativo 130 / 128 40% 2 19.10.2026 -
Raúl Lozano Quilmes Ativo 120 / 108 40% 1 18.10.2026 -
Abbubaker Mobara Chippa United Ativo 98 / 116 40% 1 17.10.2026 -
Teboho Tau Ajax Cape Town Ativo 104 / 99 40% 2 16.10.2026 -
Valentín Depietri Talleres Ativo 118 / 112 40% 1 14.10.2026 -
Íñigo Lekue Athletic Bilbao Ativo 122 / 120 40% 2 12.10.2026 -
Juan Pablo De la Reta Maipú Ativo 112 / 122 40% 2 12.10.2026 -
Andres Lioi Chaco For Ever Ativo 104 / 109 40% 1 12.10.2026 -
Gerónimo Rivera Al Wahda Ativo 121 / 133 40% 1 11.10.2026 -
Nodar Lominadze Torpedo Kutaisi Ativo 116 / 131 40% 1 07.10.2026 -
Lucas Olaza Krasnodar Ativo 119 / 148 40% 1 06.10.2026 -
Erlend Dahl Reitan IK Start Ativo 117 / 116 40% 1 05.10.2026 -
Francisco González Metilli Belgrano Ativo 127 / 119 40% 2 03.10.2026 -
Kristian Eriksen Molde Ativo 132 / 122 40% 4 01.10.2026 -
Mehdi Torabi Tractor Ativo 121 / 113 40% 1 01.10.2026 -
Ramiro Ruiz Rodríguez Atlético Tucumán Ativo 117 / 131 40% 1 27.09.2026 -
Thalente Mbatha Orlando Pirates Ativo 111 / 123 40% 1 27.09.2026 -
Nicolás Fernández Tristán Suárez Ativo 116 / 115 40% 1 26.09.2026 -
Gift Zwane Platinum Stars Ativo 116 / 116 40% 1 26.09.2026 -
Gonzalo Asis Almagro Ativo 114 / 118 40% 1 26.09.2026 -
Lucas Souto Defensa y Justicia Ativo 123 / 123 40% 2 24.09.2026 -
Matt Grimes Coventry City Ativo 120 / 108 40% 2 24.09.2026 -
Rodin Quiñónes Dinamo Batumi Ativo 99 / 119 40% 1 21.09.2026 -
Dardan Shabanhaxhaj Rubin Ativo 112 / 100 40% 1 20.09.2026 -
Mothobi Mvala Mamelodi Sundowns Ativo 121 / 128 40% 2 19.09.2026 -
Cristhián Rivas Estudiantes de Merida Ativo 112 / 117 40% 1 19.09.2026 -
Jhon Palacios Orenburg Ativo 120 / 97 40% 1 15.09.2026 -
Mikkel Ceïde Rosenborg Ativo 117 / 133 40% 1 15.09.2026 -
Federico Ricca Belgrano Ativo 124 / 114 40% 1 15.09.2026 -
Nicolás Figal Boca Juniors Ativo 129 / 112 40% 1 13.09.2026 -
Wílmar Barrios Zenit Ativo 141 / 120 40% 1 09.09.2026 -
Fabricio Pedrozo Saipa Ativo 110 / 121 40% 1 07.09.2026 -
Henrik Bjørdal Valerenga Ativo 114 / 141 40% 1 07.09.2026 -
Arash Rezavand Sepahan Ativo 104 / 102 40% 1 07.09.2026 -
Ramón Mierez Al Nasr Ativo 127 / 127 40% 1 31.08.2026 -
Luis Orejuela Ferencvaros Ativo 111 / 118 40% 1 31.08.2026 -
Nabil Fekir Al Jazira Perdido 136 / 130 40% 2 29.08.2026 -
Ibrahim Aliyu Houston Dynamo Ativo 105 / 130 40% 1 29.08.2026 -
Roger Martínez Al-Shabab Ativo 126 / 123 40% 1 28.08.2026 -
Jhon Córdoba Krasnodar Ativo 142 / 126 40% 1 28.08.2026 -
Nahuel Ulariaga Al Ahli Ativo 123 / 117 40% 1 26.08.2026 -
Moussa Dembélé Al-Ettifaq Ativo 127 / 121 40% 1 26.08.2026 -
Jostein Gundersen Bodo/Glimt Ativo 134 / 144 40% 1 17.08.2026 -
Žan Karničnik NK Maribor Ativo 114 / 120 40% 1 04.08.2026 -
Kasra Taheri Sepahan Ativo 103 / 113 69% 1 03.08.2026 Aprovar
Marcel Ruiz Toluca Ativo 128 / 156 40% 1 01.08.2026 -
Emanuel Coronel Rosario Central Ativo 125 / 125 40% 1 01.08.2026 -